Location: Eyeline Observatory
(43.2182°N, 78.8632°W)
Time: 16:37:47
(UTC-05:00)

Vanguard 1 Rocket - All Passes

Search period start: 17 February 2018 00:00
Search period end: 27 February 2018 00:00
Orbit: 655 x 4222 km, 34.3° (Epoch: 16 February)

Date Brightness Start Highest point End Pass type
(mag) Time Alt. Az. Time Alt. Az. Time Alt. Az.
17 Feb - 01:45:56 10° WSW 02:11:22 68° S 02:32:25 10° E visible
17 Feb - 04:17:53 10° W 04:42:33 57° SSW 04:58:27 10° SE visible
17 Feb - 06:53:13 10° W 07:09:19 27° SW 07:19:59 10° S daylight
17 Feb - 19:51:44 10° SE 19:59:28 13° ESE 20:08:18 10° E visible
17 Feb - 22:07:14 10° SSW 22:25:42 42° SE 22:48:34 10° E visible
18 Feb - 00:32:38 10° WSW 00:56:23 65° SSE 01:19:38 10° E visible
18 Feb - 03:02:49 10° W 03:28:36 65° SSW 03:47:18 10° ESE visible
18 Feb - 05:36:23 10° W 05:57:36 40° SW 06:11:09 10° SSE visible
18 Feb - 08:20:11 10° WSW 08:21:55 10° WSW 08:23:34 10° SW daylight
18 Feb - 20:57:46 10° S 21:12:54 30° SE 21:32:36 10° E visible
18 Feb - 23:20:23 10° SW 23:41:39 58° SSE 00:06:01 10° E visible
19 Feb - 01:48:34 10° WSW 02:13:51 68° S 02:35:19 10° ESE visible
19 Feb - 04:20:31 10° W 04:44:50 53° SSW 05:01:06 10° SE visible
19 Feb - 06:56:44 10° W 07:11:10 22° SW 07:21:26 10° S daylight
19 Feb - 19:50:34 10° SSE 20:01:04 18° ESE 20:14:11 10° E visible
19 Feb - 22:09:16 10° SSW 22:27:40 47° SSE 22:51:29 10° E visible
20 Feb - 00:35:14 10° WSW 00:58:46 67° S 01:22:30 10° E visible
20 Feb - 03:05:29 10° W 03:30:59 62° SSW 03:50:04 10° ESE visible
20 Feb - 05:39:16 10° W 05:59:35 35° SW 06:13:15 10° SSE visible
20 Feb - 20:59:19 10° SSW 21:14:40 35° SE 21:35:50 10° E visible
20 Feb - 23:22:52 10° SW 23:43:54 62° SSE 00:08:50 10° E visible
21 Feb - 01:51:16 10° W 02:16:19 67° S 02:38:08 10° ESE visible
21 Feb - 04:23:14 10° W 04:46:58 48° SSW 05:03:32 10° SE visible
21 Feb - 07:00:58 10° W 07:12:54 18° WSW 07:22:07 10° SSW daylight
21 Feb - 19:51:01 10° S 20:02:43 23° SE 20:18:31 10° E visible
21 Feb - 22:11:32 10° SW 22:29:44 53° SSE 22:54:17 10° E visible
22 Feb - 00:37:57 10° WSW 01:01:12 68° S 01:25:18 10° E visible
22 Feb - 03:08:12 10° W 03:33:17 58° SSW 03:52:42 10° SE visible
22 Feb - 05:42:24 10° W 06:01:25 30° SW 06:15:00 10° S visible
22 Feb - 18:47:36 10° SE 18:51:38 11° ESE 18:56:08 10° ESE visible
22 Feb - 21:01:15 10° SSW 21:16:34 41° SE 21:38:48 10° E visible
22 Feb - 23:25:32 10° WSW 23:46:14 65° SSE 00:11:35 10° E visible
23 Feb - 01:54:03 10° W 02:18:42 65° SSW 02:40:52 10° ESE visible
23 Feb - 04:26:03 10° W 04:48:58 42° SW 05:05:44 10° SSE visible
23 Feb - 07:06:42 10° W 07:14:32 13° WSW 07:21:14 10° SW daylight
23 Feb - 19:52:16 10° S 20:04:29 28° SE 20:22:06 10° E visible
23 Feb - 22:14:02 10° SW 22:31:55 57° SSE 22:57:00 10° E visible
24 Feb - 00:40:45 10° WSW 01:03:39 68° S 01:28:03 10° ESE visible
24 Feb - 03:10:58 10° W 03:35:28 54° SSW 03:55:08 10° SE visible
24 Feb - 05:45:55 10° W 06:03:09 25° SW 06:16:15 10° S visible
24 Feb - 18:45:44 10° SSE 18:53:19 15° ESE 19:03:00 10° E visible
24 Feb - 21:03:30 10° SSW 21:18:36 46° SE 21:41:35 10° E visible
24 Feb - 23:28:19 10° WSW 23:48:39 67° S 00:14:17 10° E visible
25 Feb - 01:56:52 10° W 02:21:03 62° SSW 02:43:27 10° SE visible
25 Feb - 04:29:02 10° W 04:50:51 37° SW 05:07:36 10° SSE visible
25 Feb - 19:54:03 10° SSW 20:06:21 33° SE 20:25:16 10° E visible
25 Feb - 22:16:43 10° SW 22:34:14 61° SSE 22:59:40 10° E visible
26 Feb - 00:43:37 10° W 01:06:05 67° S 01:30:42 10° ESE visible
26 Feb - 03:13:49 10° W 03:37:32 49° SSW 03:57:21 10° SE visible
26 Feb - 05:50:04 10° W 06:04:47 20° SW 06:16:45 10° SSW visible
26 Feb - 18:46:14 10° SSE 18:55:06 20° SE 19:07:30 10° E visible
26 Feb - 21:05:59 10° SW 21:20:45 51° SSE 21:44:15 10° E visible
